Agadir Al Massira, Morocco

9:57 AM WEST on September 25, 2017 (GMT +0100)
Agadir Al Massira

Weather History for GMAD - November, 2012

Change the Weather History Date:

Sunday, November 11, 2012

  Actual Average Record
Temperature  
Mean Temperature 63 °F -  
Max Temperature 75 °F - - ()
Min Temperature 51 °F - - ()
Degree Days  
Heating Degree Days 2    
Growing Degree Days 13 (Base 50)    
Moisture  
Dew Point 52 °F    
Average Humidity 67    
Maximum Humidity 94    
Minimum Humidity 41    
Precipitation  
Precipitation 0.00 in - - ()
Sea Level Pressure  
Sea Level Pressure 29.99 in    
Wind  
Wind Speed 6 mph ()    
Max Wind Speed 20 mph    
Max Gust Speed -    
Visibility 6.1 miles    
Events      
T = Trace of Precipitation, MM = Missing Value Source: Averaged Metar Reports

Daily Weather History Graph

Daily Weather History Graph

Search for Another Location

Airport or City:

Trip Planner

Search our weather history database for the weather conditions in past years. The results will help you decide how hot, cold, wet, or windy it might be!

Date:

Astronomy

Nov. 11, 2012 Rise Set
Actual Time 7:00 AM WET 5:42 PM WET
Civil Twilight 6:34 AM WET 6:08 PM WET
Nautical Twilight 6:06 AM WET 6:36 PM WET
Astronomical Twilight 5:37 AM WET 7:05 PM WET
Moon 4:08 AM WET (11/11) 3:50 PM WET (11/11)
Length of Visible Light 11h 33m
Length of Day
10h 42m
Waning Crescent, 8% of the Moon is Illuminated
Nov 11
Waning Crescent
Nov 13
New
Nov 20
First Quarter
Nov 28
Full
Dec 6
Last Quarter

Hourly Weather History & Observations

Time (WET) Temp. Dew Point Humidity Pressure Visibility Wind Dir Wind Speed Gust Speed Precip Events Conditions
12:00 AM 59 °F 54 °F 77% 30.03 in 6 mi ENE 5.8 mph - -  
12:00 AM 59.0 °F 53.6 °F 82% 30.04 in 6.2 mi ENE 5.8 mph - N/A   Partly Cloudy
1:00 AM 57.2 °F 53.6 °F 88% 30.01 in - East 5.8 mph - N/A   Clear
2:00 AM 55.4 °F 53.6 °F 94% 30.01 in - East 4.6 mph - N/A   Clear
3:00 AM 54 °F 51 °F 88% 30.03 in 6 mi East 3.5 mph - -  
3:00 AM 53.6 °F 51.8 °F 94% 30.01 in - East 3.5 mph - N/A   Clear
5:00 AM 53.6 °F 51.8 °F 94% 30.04 in - East 4.6 mph - N/A   Clear
6:00 AM 52 °F 50 °F 91% 30.05 in 6 mi NE 5.8 mph - -  
7:00 AM 51.8 °F 50.0 °F 94% 30.04 in - ENE 6.9 mph - N/A   Clear
8:00 AM 53.6 °F 51.8 °F 94% 30.06 in 6.2 mi East 3.5 mph - N/A   Scattered Clouds
9:00 AM 62 °F 56 °F 75% 30.07 in 6 mi East 4.6 mph - -   Scattered Clouds
9:00 AM 62.6 °F 55.4 °F 77% 30.06 in 6.2 mi East 4.6 mph - N/A   Scattered Clouds
10:00 AM 66.2 °F 55.4 °F 68% 30.06 in 6.2 mi SSE 4.6 mph - N/A   Partly Cloudy
11:00 AM 68.0 °F 55.4 °F 64% 30.06 in 6.2 mi WSW 4.6 mph - N/A   Partly Cloudy
12:00 PM 70 °F 56 °F 52% 30.03 in 6 mi SW 4.6 mph - -   Partly Cloudy
12:00 PM 69.8 °F 55.4 °F 60% 30.04 in 6.2 mi SW 4.6 mph - N/A   Scattered Clouds
1:00 PM 71.6 °F 53.6 °F 53% 29.98 in 6.2 mi West 10.4 mph - N/A   Scattered Clouds
2:00 PM 71.6 °F 59.0 °F 64% 29.95 in 6.2 mi West 19.6 mph - N/A   Scattered Clouds
3:00 PM 73 °F 58 °F 50% 29.94 in 6 mi West 17.3 mph - -   Partly Cloudy
3:00 PM 73.4 °F 59.0 °F 61% 29.92 in 6.2 mi West 17.3 mph - N/A   Scattered Clouds
4:00 PM 75.2 °F 51.8 °F 44% 29.92 in 6.2 mi West 17.3 mph - N/A   Unknown
5:00 PM 71.6 °F 51.8 °F 50% 29.92 in 6.2 mi West 11.5 mph - N/A   Partly Cloudy
6:00 PM 67 °F 51 °F 45% 29.92 in 6 mi WSW 6.9 mph - -   Partly Cloudy
6:00 PM 68.0 °F 50.0 °F 52% 29.92 in 6.2 mi WSW 6.9 mph - N/A   Scattered Clouds
7:00 PM 66.2 °F 50.0 °F 56% 29.92 in 6.2 mi Calm Calm - N/A   Scattered Clouds
8:00 PM 64.4 °F 44.6 °F 49% 29.95 in 6.2 mi NW 9.2 mph - N/A   Unknown
9:00 PM 63 °F 45 °F 41% 29.96 in 6 mi WNW 10.4 mph - -  
9:00 PM 62.6 °F 44.6 °F 52% 29.95 in - WNW 10.4 mph - N/A   Clear
10:00 PM 62.6 °F 42.8 °F 48% 29.95 in - WSW 4.6 mph - N/A   Clear
11:00 PM 62.6 °F 46.4 °F 55% 29.95 in - West 8.1 mph - N/A   Clear